Wind_Speed
16 12 15 19 16 19 21 24 24 25 20 17 25 24 24 24 28 22 29 19 25 27 25 25 27 28 22 21 26 32 34 30 31 28 25 22 19 17 15 13 13 12 12 11
13 17 20 21 17 23 23 24 25 24 23 21 21 26 29 23 28 28 23 24 23 24 26 25 30 29 30 23 28 31 34 32 30 27 23 22 20 19 17 15 13 12 12 11
17 19 19 13 17 23 19 20 23 24 26 23 20 24 25 27 25 26 24 18 20 21 23 23 23 27 28 28 29 32 33 33 32 26 21 20 21 18 17 16 14 12 11 10
16 21 19 20 22 18 21 22 22 24 21 16 21 19 24 26 25 25 24 23 22 22 20 20 24 19 27 27 31 35 34 34 29 27 25 26 23 21 19 17 13 13 12 10
21 22 12 16 14 13 20 20 21 17 22 20 25 15 19 26 29 26 25 26 25 24 22 23 22 26 29 27 31 36 33 37 32 29 27 26 22 20 19 17 16 11 10 11
24 23 19 20 19 12 15 16 20 20 15 17 24 21 19 23 31 31 29 31 29 28 24 23 22 29 29 32 32 34 35 34 31 27 27 21 27 22 20 18 19 15 14 14
13 18 21 20 15 15 17 14 7 7 10 16 19 22 21 25 28 29 29 30 29 29 24 24 22 23 26 31 32 35 34 32 30 30 26 26 26 25 22 18 17 19 18 14
9 6 4 3 13 10 16 16 10 11 9 11 17 19 20 28 27 19 17 23 27 28 23 24 23 23 25 34 35 34 36 35 32 32 28 26 26 22 20 17 19 20 21 15
7 6 6 12 12 12 11 18 19 22 22 16 15 12 25 21 28 23 21 16 27 25 25 24 24 24 34 38 36 35 34 34 34 32 31 28 23 23 25 23 25 21 18 17
2 9 10 11 18 17 18 4 6 10 9 17 15 15 13 19 27 14 17 12 13 26 26 23 23 21 38 39 36 31 36 38 37 34 31 27 26 27 25 22 23 21 20 18
2 5 7 7 9 17 8 7 10 11 14 13 7 8 14 12 26 23 17 16 15 23 24 24 22 22 41 39 34 30 34 38 35 33 30 29 31 28 25 24 22 21 20 18
5 5 12 23 23 21 20 16 15 9 12 12 14 6 17 22 19 23 21 20 20 19 25 24 23 19 14 33 35 31 35 34 34 31 32 33 31 27 25 24 23 20 19 17
1 4 7 10 9 15 12 14 13 18 17 18 8 6 9 19 9 23 22 20 20 24 25 23 24 20 16 25 31 29 31 34 34 33 34 32 29 27 26 25 22 20 19 17
8 5 13 14 20 2 4 11 9 15 10 19 17 5 17 15 16 14 19 20 17 22 21 25 25 18 18 23 27 30 31 34 35 34 33 31 28 28 26 25 22 20 18 16
2 5 13 19 24 23 21 19 19 16 20 20 16 4 9 15 13 19 17 15 18 20 25 27 22 16 15 23 29 30 30 33 34 34 33 30 29 28 26 25 22 19 17 16
2 4 15 21 20 19 19 19 19 18 16 16 21 14 9 15 15 18 16 17 23 25 23 23 22 18 15 24 29 31 32 33 35 34 33 30 30 28 26 23 21 19 18 17
3 3 6 10 7 1 6 15 18 18 18 14 15 2 5 15 15 17 20 20 25 21 21 20 19 16 20 27 31 33 34 35 35 35 33 31 29 27 24 22 21 20 19 18
3 2 3 7 11 4 9 18 4 9 9 3 11 8 4 10 12 18 24 28 22 21 21 18 16 21 27 32 35 38 36 37 37 35 32 30 28 26 23 22 21 20 19 18
10 3 4 4 4 1 14 16 10 9 6 14 9 2 3 5 2 6 16 22 22 21 19 19 26 29 33 33 35 37 38 37 36 33 30 28 26 25 23 22 21 19 18 17
13 10 3 4 3 6 8 20 18 12 4 8 4 4 7 10 2 5 11 22 21 22 26 26 29 32 31 31 36 36 37 36 33 31 30 27 25 24 24 22 20 19 17 16
8 6 6 9 3 5 15 25 13 4 7 17 7 8 6 4 5 7 14 21 20 23 29 33 32 30 31 34 36 35 36 34 33 32 30 28 26 25 23 22 19 18 17 16
5 7 5 6 5 3 24 14 7 11 17 4 14 13 15 15 14 13 15 20 23 22 28 31 30 28 28 33 35 36 34 34 33 32 30 28 25 23 22 21 18 16 15 13
2 3 4 4 4 9 12 13 13 18 1 12 14 14 16 16 14 13 15 18 19 22 27 30 31 32 31 33 33 36 34 34 33 31 29 28 26 23 20 19 17 15 11 10
5 3 3 6 1 10 12 14 15 10 12 13 15 15 15 16 15 15 14 15 17 24 27 30 31 34 33 34 34 35 34 33 33 32 30 27 26 23 20 19 18 17 13 12
2 6 6 4 4 11 8 13 13 9 12 16 15 16 17 17 15 15 14 14 17 25 28 29 31 34 35 34 34 32 32 32 32 31 30 28 26 25 26 25 19 19 23 18
2 3 3 3 8 5 7 12 11 9 12 12 17 17 16 17 16 15 13 16 22 25 30 32 34 35 34 34 33 31 31 31 31 29 26 25 25 25 25 26 28 29 25 22
Wind_Direction
255 242 245 256 263 269 275 280 283 287 286 275 280 265 242 246 246 243 227 230 225 224 236 221 210 198 214 213 188 164 166 176 178 167 178 173 166 169 164 161 148 162 169 175
253 257 247 268 300 292 275 269 267 274 276 265 261 269 262 243 230 237 235 224 229 220 223 224 218 209 192 188 175 167 165 172 172 173 179 173 165 166 162 151 157 163 172 176
275 273 288 259 258 272 266 276 280 279 278 272 265 261 265 249 242 225 235 232 236 233 212 217 212 203 201 177 164 163 161 164 167 173 173 163 150 149 151 144 158 168 172 177
277 272 263 256 265 265 264 269 267 262 272 260 248 256 235 243 232 233 229 226 232 237 225 211 204 189 191 173 169 161 165 160 171 171 166 158 155 164 161 150 145 147 158 162
263 279 268 274 262 275 272 282 268 256 256 266 252 256 263 226 231 225 219 228 229 232 224 219 191 201 170 168 167 167 163 160 177 172 169 166 155 137 138 143 148 151 134 121
267 268 261 258 260 253 264 266 257 249 261 257 249 250 242 248 224 218 220 218 219 227 216 215 190 192 164 177 173 168 156 170 166 166 163 154 149 148 148 149 142 129 122 127
275 253 238 246 260 256 240 246 245 239 232 251 243 239 249 251 220 217 221 206 207 218 207 206 191 170 178 176 165 156 159 159 163 157 154 152 149 154 148 142 130 129 121 126
287 296 246 201 239 250 237 237 235 267 252 270 252 227 238 245 251 215 226 205 199 208 196 191 188 176 166 168 160 160 160 156 155 149 151 151 152 143 130 127 130 119 117 110
317 249 303 274 263 251 246 243 257 270 288 275 254 213 254 235 240 221 210 205 194 193 191 185 177 186 159 149 156 158 155 152 144 148 151 153 139 130 114 113 112 118 121 122
324 289 276 271 288 247 245 251 260 244 268 268 265 237 233 224 222 221 176 196 213 183 183 185 171 165 139 154 151 161 151 150 149 152 145 136 128 114 114 120 120 121 120 115
207 251 281 287 241 247 221 247 232 268 257 271 271 289 343 262 210 199 196 204 221 188 178 180 165 167 146 146 146 156 151 145 145 141 136 131 120 119 120 120 120 118 116 111
264 276 271 270 264 244 258 246 251 227 240 264 295 273 276 293 218 201 204 190 205 212 183 165 162 128 124 130 146 149 144 135 133 138 121 118 118 123 122 118 116 115 112 107
197 245 290 290 231 230 235 252 255 240 266 255 263 307 310 308 268 200 204 190 188 203 178 155 122 122 126 133 141 138 124 123 121 118 116 117 119 121 119 117 116 115 108 104
221 221 243 265 285 267 274 276 236 246 258 258 255 124 281 301 347 330 208 181 193 197 155 139 119 123 123 130 126 119 115 118 118 116 116 118 122 120 117 114 110 107 105 102
259 262 252 263 260 268 268 258 251 243 252 253 263 108 284 293 319 307 310 244 175 193 140 114 113 122 121 124 114 114 117 121 122 118 117 118 118 116 113 110 108 106 105 105
228 272 286 283 265 241 250 249 252 247 252 252 261 240 275 294 294 295 294 273 175 105 105 116 115 118 121 121 119 119 120 123 124 116 116 117 114 111 109 110 110 111 109 106
247 275 302 279 354 221 238 249 236 243 241 252 237 292 258 296 298 296 282 258 116 122 119 110 117 121 123 121 124 122 124 122 116 116 117 117 116 115 116 115 113 110 107 104
251 247 261 280 297 224 19 24 234 214 240 213 125 187 314 288 292 296 247 118 119 119 114 113 117 119 120 123 123 123 122 119 118 118 119 119 119 116 116 113 108 107 105 101
215 243 276 274 304 283 21 1 346 332 25 85 121 58 220 253 235 10 70 97 110 110 109 111 117 120 122 127 129 123 121 120 118 117 118 118 118 116 115 111 109 109 107 102
314 193 224 295 327 31 358 336 312 283 157 105 51 206 195 214 181 359 65 96 96 101 108 113 117 117 118 122 121 119 117 116 115 118 116 116 115 113 111 110 110 110 108 103
334 351 313 329 351 95 355 331 314 339 359 317 50 113 100 81 92 101 103 97 100 104 108 112 111 111 115 119 118 114 114 112 115 114 113 112 111 110 110 111 110 109 105 102
333 321 343 326 353 353 2 345 10 314 308 54 83 103 106 101 100 101 102 106 109 107 109 109 110 116 121 116 113 109 108 114 113 112 112 112 111 110 109 108 108 105 104 100
337 358 301 333 328 331 325 322 312 294 38 72 93 100 103 101 96 99 103 104 106 107 110 111 113 111 107 109 110 109 113 115 115 113 112 110 109 107 106 105 103 100 98 94
344 31 257 315 120 333 329 338 338 25 77 91 103 102 99 100 97 98 101 104 106 107 109 113 111 108 107 109 109 110 116 118 116 113 110 109 106 103 95 87 77 66 52 82
327 309 318 270 5 322 349 358 347 49 78 88 95 104 102 102 94 97 99 105 109 111 114 113 111 110 110 112 112 115 118 119 115 111 110 104 94 88 82 77 81 74 61 75
317 317 332 321 332 287 335 5 4 60 78 88 96 96 98 101 103 99 95 104 108 110 110 109 111 112 113 113 114 116 118 118 117 115 111 112 110 105 100 95 84 77 79 78
Height
725 739 734 716 711 709 712 708 706 694 690 697 690 682 682 677 675 668 670 668 669 671 669 671 677 685 694 696 703 711 720 730 737 743 748 751 756 761 765 769 773 777 780 781
729 730 719 712 712 716 709 710 707 700 694 695 691 690 677 668 668 668 661 660 661 662 663 666 671 677 685 691 698 710 717 727 734 739 744 748 751 758 763 767 773 776 777 779
728 720 711 718 726 720 711 712 706 706 695 689 689 689 683 667 660 658 656 655 655 654 655 658 661 669 677 686 697 706 714 725 732 736 741 745 749 756 762 768 771 773 776 779
721 709 709 712 711 711 718 704 702 703 700 704 683 693 673 676 659 657 654 656 656 652 650 650 655 664 671 682 696 704 712 722 731 735 739 741 746 754 757 764 769 771 776 779
722 716 717 712 705 706 709 702 701 705 697 696 684 691 672 656 657 654 654 654 653 649 647 647 650 660 668 686 694 701 710 714 727 733 737 741 745 753 757 763 767 773 778 780
713 702 701 699 696 701 699 701 698 691 689 704 685 681 666 654 645 643 642 641 645 643 641 642 643 652 664 683 691 700 709 719 725 727 735 739 744 752 758 762 765 770 778 784
702 692 688 690 695 694 695 700 713 714 710 691 667 673 661 636 621 620 618 623 631 634 633 636 639 646 660 678 690 698 708 714 723 727 733 740 745 752 755 760 762 772 779 784
715 702 688 687 695 697 694 690 701 695 687 687 656 663 654 626 613 605 607 611 617 622 624 629 634 641 656 672 687 694 704 711 720 725 734 742 747 751 754 758 767 773 780 786
719 711 692 688 685 688 691 695 677 686 674 674 651 644 633 617 616 608 607 602 608 613 616 625 630 636 649 671 684 693 700 708 717 726 735 743 745 747 753 763 769 777 783 789
742 726 697 696 690 680 681 681 699 685 690 673 644 640 633 626 620 611 608 612 606 606 611 621 626 635 646 671 682 693 701 707 716 727 733 738 744 749 758 767 774 780 785 789
740 737 705 705 696 687 694 699 691 680 672 667 668 657 633 623 611 618 614 617 611 605 608 617 623 635 635 662 683 693 700 707 716 723 731 740 746 755 764 771 778 782 786 791
730 732 711 690 671 669 672 678 677 689 670 649 646 658 640 628 606 608 610 611 610 604 606 612 623 637 608 658 684 693 700 706 714 727 733 741 750 760 768 774 779 785 789 794
741 729 709 677 660 663 671 667 668 670 665 671 676 666 646 624 605 606 608 604 603 604 603 612 632 653 669 678 689 694 700 708 720 728 736 745 755 763 770 777 783 790 793 797
737 732 717 699 679 697 691 674 670 672 677 650 646 683 656 633 639 622 604 602 601 602 604 615 643 664 676 685 690 695 705 713 722 732 742 752 761 767 774 780 786 792 796 800
735 717 707 696 687 683 680 676 674 667 660 663 647 679 663 644 646 640 631 611 603 602 606 634 656 674 683 690 695 703 711 718 728 738 748 758 764 771 778 784 790 795 800 805
733 714 693 676 659 662 666 660 660 658 659 655 650 658 670 647 648 641 631 620 608 626 642 652 667 681 689 694 701 710 717 726 735 743 752 761 768 775 783 790 795 801 806 809
733 717 702 666 650 666 669 654 650 650 646 645 654 660 659 646 645 645 638 619 622 648 657 663 677 689 695 700 707 714 724 732 738 747 758 766 774 782 789 796 801 805 808 811
728 723 709 679 658 658 657 644 631 636 637 635 660 665 658 657 660 653 625 618 642 653 663 677 688 697 702 709 716 722 729 735 743 754 765 773 780 787 794 799 804 808 811 814
723 721 698 679 671 669 657 666 670 663 652 644 654 654 665 666 666 656 629 636 652 664 676 686 697 703 709 716 721 724 732 741 750 760 770 777 785 792 797 802 806 811 815 817
693 702 706 682 654 663 692 676 663 650 654 654 656 659 666 670 666 662 655 659 669 677 687 697 705 712 716 721 724 730 737 747 757 767 775 783 791 797 801 807 811 815 819 822
700 691 684 674 667 675 701 688 653 659 672 662 658 658 667 671 674 677 675 676 683 689 697 705 712 717 723 728 732 737 746 756 766 775 782 790 797 802 808 812 816 820 823 826
722 717 698 685 677 675 704 687 686 690 674 663 667 676 678 681 685 686 686 687 692 699 707 713 718 727 732 736 739 745 756 767 774 782 790 798 803 808 813 816 820 823 826 828
722 736 732 723 709 719 719 714 702 690 675 672 677 685 686 690 694 697 699 701 704 708 714 721 726 732 740 746 752 755 767 774 782 790 797 802 808 813 818 821 823 826 828 829
736 743 732 729 721 722 720 712 701 687 684 685 689 693 696 699 704 707 710 712 715 718 723 729 733 738 747 755 762 767 775 782 789 796 802 809 813 818 821 823 826 830 831 832
745 746 736 727 726 725 721 717 710 701 699 698 700 702 705 707 713 715 719 721 723 726 732 736 741 749 757 764 771 778 785 790 795 802 808 814 820 824 827 831 837 839 839 839
751 745 738 728 739 735 729 723 718 710 710 710 707 711 715 716 721 724 728 730 731 734 740 745 754 759 766 773 780 787 793 798 802 806 812 819 825 830 835 839 844 845 846 847